TimeCST,TemperatureF,Dew PointF,Humidity,Sea Level PressureIn,VisibilityMPH,Wind Direction,Wind SpeedMPH,Gust SpeedMPH,PrecipitationIn,Events,Conditions,WindDirDegrees,DateUTC
12:53 AM,66.0,60.1,81,30.10,10.0,South,10.4,-,N/A,,Overcast,170,2013-01-28 06:53:00
1:07 AM,64.4,60.8,88,30.11,10.0,South,9.2,-,N/A,,Overcast,170,2013-01-28 07:07:00
1:16 AM,64.4,60.8,88,30.11,10.0,South,8.1,-,N/A,,Overcast,170,2013-01-28 07:16:00
1:53 AM,64.9,60.1,84,30.12,10.0,South,8.1,-,0.00,,Overcast,190,2013-01-28 07:53:00
2:53 AM,64.0,61.0,90,30.12,8.0,South,10.4,-,0.00,Rain,Light Rain,170,2013-01-28 08:53:00
3:46 AM,64.4,60.8,88,30.12,10.0,South,8.1,-,0.01,,Overcast,170,2013-01-28 09:46:00
3:53 AM,63.0,61.0,93,30.11,10.0,South,8.1,-,0.01,,Overcast,170,2013-01-28 09:53:00
4:12 AM,62.6,60.8,94,30.12,10.0,South,5.8,-,N/A,,Overcast,170,2013-01-28 10:12:00
4:53 AM,64.0,61.0,90,30.11,10.0,South,9.2,-,N/A,,Overcast,170,2013-01-28 10:53:00
5:23 AM,62.6,60.8,94,30.12,10.0,South,9.2,-,N/A,,Overcast,170,2013-01-28 11:23:00
5:39 AM,62.6,60.8,94,30.11,9.0,South,9.2,-,N/A,,Overcast,170,2013-01-28 11:39:00
5:53 AM,63.0,61.0,93,30.12,9.0,SSE,8.1,-,N/A,,Overcast,160,2013-01-28 11:53:00
6:53 AM,63.0,61.0,93,30.14,8.0,SSE,8.1,-,N/A,,Overcast,160,2013-01-28 12:53:00
7:53 AM,63.0,61.0,93,30.14,6.0,SSE,8.1,-,0.00,,Overcast,160,2013-01-28 13:53:00
8:53 AM,63.0,61.0,93,30.14,8.0,SSE,5.8,-,N/A,,Overcast,160,2013-01-28 14:53:00
9:53 AM,64.9,62.1,90,30.14,10.0,SSE,9.2,-,N/A,,Overcast,160,2013-01-28 15:53:00
10:12 AM,66.2,62.6,88,30.15,10.0,SSE,10.4,17.3,N/A,,Overcast,160,2013-01-28 16:12:00
10:53 AM,68.0,62.1,81,30.14,10.0,SSE,9.2,18.4,N/A,,Overcast,160,2013-01-28 16:53:00
11:53 AM,70.0,63.0,78,30.12,10.0,South,9.2,-,N/A,,Overcast,170,2013-01-28 17:53:00
12:39 PM,71.6,62.6,73,30.09,10.0,South,11.5,20.7,N/A,,Mostly Cloudy,180,2013-01-28 18:39:00
12:53 PM,73.0,62.1,68,30.07,10.0,South,16.1,23.0,N/A,,Mostly Cloudy,170,2013-01-28 18:53:00
1:53 PM,73.0,61.0,66,30.04,10.0,South,15.0,21.9,N/A,,Overcast,170,2013-01-28 19:53:00
2:53 PM,73.0,61.0,66,30.03,10.0,South,12.7,20.7,N/A,,Overcast,180,2013-01-28 20:53:00
3:53 PM,73.0,60.1,64,30.02,10.0,South,12.7,-,N/A,,Overcast,170,2013-01-28 21:53:00
4:53 PM,71.1,61.0,70,30.02,10.0,SSE,6.9,-,N/A,,Mostly Cloudy,150,2013-01-28 22:53:00
5:53 PM,70.0,61.0,73,30.01,10.0,SSE,9.2,-,N/A,,Overcast,150,2013-01-28 23:53:00
6:53 PM,69.1,61.0,75,30.01,10.0,SSE,10.4,-,N/A,,Overcast,150,2013-01-29 00:53:00
7:53 PM,68.0,61.0,78,30.01,9.0,SSE,9.2,-,N/A,,Scattered Clouds,150,2013-01-29 01:53:00
8:53 PM,66.9,62.1,84,30.01,10.0,SSE,11.5,-,N/A,,Clear,160,2013-01-29 02:53:00
9:53 PM,66.9,62.1,84,30.01,10.0,SSE,11.5,-,N/A,,Scattered Clouds,160,2013-01-29 03:53:00
10:08 PM,66.2,62.6,88,30.02,10.0,South,11.5,18.4,N/A,,Mostly Cloudy,170,2013-01-29 04:08:00
10:53 PM,66.9,62.1,84,30.02,10.0,South,11.5,-,N/A,,Overcast,170,2013-01-29 04:53:00
11:18 PM,66.2,62.6,88,30.02,10.0,SSE,11.5,-,N/A,,Scattered Clouds,160,2013-01-29 05:18:00
11:53 PM,64.9,61.0,87,30.00,10.0,SSE,9.2,-,N/A,,Clear,160,2013-01-29 05:53:00